Location: Unspecified
(0.0000°N, 0.0000°E)
Time: 19:52:59
(UTC+00:00)

Vanguard 2 Rocket - Visible Passes

Search period start: 21 October 2014 00:00
Search period end: 31 October 2014 00:00
Orbit: 554 x 3335 km, 32.9° (Epoch: 20 October)

Date Brightness Start Highest point End Pass type
(mag) Time Alt. Az. Time Alt. Az. Time Alt. Az.
22 Oct 9.3 20:09:26 10° SSW 20:13:15 15° S 20:13:15 15° S visible
23 Oct 9.4 19:09:55 10° SSW 19:14:23 13° SSE 19:17:59 10° SE visible
23 Oct 9.9 21:23:52 10° SW 21:24:10 11° SW 21:24:10 11° SW visible
24 Oct 9.8 18:09:21 10° SSW 18:14:07 13° S 18:18:04 10° SSE visible
24 Oct 9.0 20:24:25 10° SSW 20:29:12 24° S 20:29:12 24° S visible
25 Oct 8.8 19:24:37 10° SSW 19:32:19 22° SSE 19:34:14 20° SE visible
26 Oct 9.4 18:24:17 10° SSW 18:32:24 19° SSE 18:38:13 10° ESE visible
26 Oct 8.9 20:40:14 10° SW 20:45:13 30° SSW 20:45:13 30° SSW visible
27 Oct 8.2 19:40:07 10° SW 19:49:52 38° SSE 19:50:17 38° SSE visible
28 Oct 8.9 18:39:40 10° SSW 18:50:18 30° SSE 18:55:22 17° ESE visible
28 Oct 9.0 20:56:43 10° WSW 21:01:17 29° WSW 21:01:17 29° WSW visible
29 Oct 7.6 19:56:08 10° SW 20:06:23 65° S 20:06:23 65° S visible
30 Oct 9.7 05:07:19 10° NNE 05:09:37 11° NE 05:12:13 10° NE visible
30 Oct 8.2 18:55:25 10° SW 19:07:47 47° SSE 19:11:30 30° E visible
30 Oct 9.4 21:13:58 10° WSW 21:17:25 21° W 21:17:25 21° W visible
